Погода в Виннице

Погода в Виннице : погода сейчас, прогноз погоды и архив. Всё, что Вы хотите узнать о погоде в Виннице!

Хотите узнать прогноз погоды в Виннице? Тогда Вам сюда: Погода в Виннице

Поиск расширенной информации на нашем сайте:

Другие новости

Новости СМИ2

Главная страница сайта

Новости сайта

03.07.2017

Напоминаем, что на нашем специализированном сайте Метеоцентр.Азия вы можете получить высокодетализированные автоматические прогнозы погоды по пунктам России, СНГ и мира в авиационном формате (включающие направление и скорость ветра, видимость, явления погоды, количество и форму облачности, нижнюю и верхнюю границу облачности).


Погода в Виннице - сегодня

Время (UTC), дата Ветер
(°,м/с) 
Видим.   Явления Облачность Т
(°С)
Тd
(°С)
f(%) Тe
(°С)
Pmin
(гПа)
dP
(гПа)
Po
(мм)
O2
(г/м3)
Тmin Tmax R s Состояние
почвы
09 19.09.17 080 (В) 13000 м    4/3 1000 м средняя 
[Sc|Ac trans]
+16.6 +6.4 51 +17  1019.1  738  279           
12 19.09.17 060 (СВ) 13000 м    8/3 1000 м средняя 
[Sc|Ac trans]
+19.1 +3.4 35 +20  1017.6  -1.2  737  277           
15 19.09.17 100 (В) 9000 м  слаб. ливневой дождь  10/8 600 м кучево-дожд., средняя 
[Cb cap|Ac und]
+13.9 +11.4 85 +17  1018.1  737  280           
18 19.09.17 030 (СВ) 7000 м  слаб. ливневой дождь  10/10 300 м кучево-дожд. 
[Cb cap]
+11.5 +10.5 94 +13  1017.6  -0.8  737  283    +19.7     
21 19.09.17 070 (В) 13000 м  {гроза, ливн. осадки}  10/4 600 м кучево-дожд., средняя 
[Cb cap|Ac und]
+12 +10.6 91 +13  1016.8  -0.7  736  282           
00 20.09.17 060 (СВ) 13000 м  {гроза, ливн. осадки}  10/6 630 м кучево-дожд., средняя 
[Cb cap|Ac und]
+13.5 +7.6 67 +13  1015.6  -1  735  281           
03 20.09.17 080 (В) 13000 м    8/3 600 м средняя 
[Sc|Ac trans]
+12.9 +8.1 73 +12  1014.3  -1.4  734  281           
06 20.09.17 090 (В) 13000 м    8/3 600 м средняя 
[Sc|Ac trans]
+13.7 +7.6 67 +13  1013.9  -0.3  734  280  +12.2  -1.3     
09 20.09.17 090 (В) 13000 м  гроза без осадков  8/6 840 м кучево-дожд., средняя 
[Cb cap|Ac trans]
+15.2 +8.9 66 +14  1013.1  -0.5  734  278           
12 20.09.17 360 (С) 13000 м  {гроза, ливн. осадки}  8/6 900 м кучево-дожд., средняя 
[Cb cap|Ac trans]
+19.1 +12.9 67 +26  1011.6  -1  733  273           
15 20.09.17 030 (СВ) 13000 м  в посл. час ливневой дождь  9/6 800 м кучево-дожд., средняя 
[Cb cap|Ac trans]
+18.1 +14.1 77 +27  1011  -0.7  732  274           
18 20.09.17 050 (СВ) 13000 м  {ливн. осадки}  9/6 600 м кучево-дожд., средняя 
[Cb cap|Ac trans]
+17.3 +12.1 71 +23  1009.6  -1.4  731  275    +21.5  0.0     
21 20.09.17 050 (СВ) 13000 м    9/5 660 м кучево-дожд., средняя 
[Cb cap|Ac trans]
+15.5 +11.8 79 +19  1009  -0.8  731  276           
00 21.09.17 020 (С) 13000 м  гроза без осадков{ливн. осадки}  10/6 720 м кучево-дожд., средняя 
[Cb cap|Ac und]
+15 +11.3 79 +18  1009.3  0.2  731  277           
03 21.09.17 060 (СВ) 13000 м  {гроза}  3/0 средняя 
[Ac trans]
+12.7 +10.4 86 +14  1007.7  -1.8  730  279           
06 21.09.17 110 (В) 13000 м  {гроза}  3/0 средняя 
[Ac trans]
+14.1 +11.9 87 +18  1007.5  730  277  +11.7    0.0     
09 21.09.17 140 (ЮВ) 13000 м    8/6 900 м средняя 
[Sc|Ac trans]
+21.7 +15.7 69 +32  1006.6  730  269           
12 21.09.17 010 (С) 13000 м    6/4 1000 м средняя 
[Sc|Ac trans]
+22.3 +16.2 68 +34  1006.8  0.3  730  268           
15 21.09.17 050 (СВ) 13000 м  гроза без осадков{ливн. осадки}  9/8 540 м кучево-дожд., средняя 
[Cb cap|Ac trans]
+19.7 +16.5 82 +32  1006.3  -0.8  729  270           
18 21.09.17 тихо ()   5000 м  гроза, ливневой дождь  10/10 300 м кучево-дожд. 
[Cb cap]
+16.3 +15.4 94 +26  1008.7  1.9  731  274    +23.4     
21 21.09.17 270 (З) 0200 м  туман{гроза, ливн. осадки}  ?/?  
+15.9 +15.9 100 +28  1008.8  0.1  731  275           
00 22.09.17 тихо ()   0200 м  туман{гроза, ливн. осадки}  ?/?  
+15.1 +15.1 100 +25  1010.4  1.4  732  276         
03 22.09.17 290 (З) 1200 м  в посл. час туман  10/10 120 м 
[St]
+14.9 +14.6 98 +24  1010.2  -0.2  732  276           
06 22.09.17 010 (С) 2100 м  в посл. час ливневой дождь{туман}  10/10 100 м кучево-дожд. 
[Cb cap]
+15.4 +14.9 97 +25  1011.6  1.4  733  276  +14.8       
09 22.09.17 350 (С) 6000 м  дымка  10/10 150 м 
[St]
+16.1 +15.4 96 +26  1010.8  -0.7  732  275           
Время (UTC), дата Ветер
(°,м/с) 
Видим.   Явления Облачность Т
(°С)
Тd
(°С)
f(%) Тe
(°С)
Pmin
(гПа)
dP
(гПа)
Po
(мм)
O2
(г/м3)
Тmin Tmax R s Состояние
почвы

Для получения пояснительной информации подведите курсор к названию столбца.

ПОГОДА в Виннице - архив

Всё, что Вы хотите узнать о погоде в Виннице - удобно и подробно!

Выберите нужную дату (начиная с 1 января 2015* года) и нажмите кнопку "Найти".
Будут отображены архивные сводки погоды по пункту Винница, начиная с указанной даты.


Отображать данные в формате CSV (для использования в таблицах Excel)


Внимание! Наш архив погоды предназначен исключительно для личного некоммерческого использования в познавательных целях. Если Вам необходимы официальные справки о состоянии погоды (для производственных, юридических, коммерческих и т.п. целей), обращайтесь в органы Росгидромета.

*Примечание: данная дата относится к архиву по метеостанциям СССР (Россия, СНГ, Балтия).
Архив по метеостанциям Зарубежной Европы и Азии (кроме Китая) хранится 10 дней, по другим регионам земного шара (Китай, Африка, Америка, Австралия, Океания) - 1 день.

Винница - район местоположения метеостанции


Название, широта, долгота, высота метеостанции:
Винница 49.2°ш. 28.6°д. 298 м над ур. моря [Украина]

Дополнительная информация

В oтличие oт бoльшинства пoгoдных сайтoв мы публикуем пoдрoбную метеoинфoрмацию в детальнoм прoфессиoнальнoм фoрмате.

Характеристики температуры и влажнoсти вoздуха измеряются на высoте 2 м в тени вдали oт зданий и деревьев.
Скoрoсть ветра измеряется на высoте 10 м (на урoвне рoста челoвека скoрoсть ветра ниже в 1.5-2 раза). Если метеoстанция нахoдится в гoрoде или в лесу, тo скoрoсть ветра занижена на 2-4 м/с пo сравнению с oткрытым местoм. Скoрoсть ветра над акватoриями крупных рек и oзёр, а также на вершинах хoлмoв на 2-5 м/с выше, чем в oбычных услoвиях.
Атмoсфернoе давление в разных тoчках местнoсти мoжет значительнo oтличаться oт давления на метеoстанции, в зависимoсти oт услoвий рельефа (при пoдъёме на 10 м давление пoнижается примернo на 1 мм рт.ст.).